Location: ????????
(60.4333°N, 46.4710°E)
Time: 18:46:11
(UTC+00:00)

Cosmos 1455 - Pass Details

Date: 25 November 2020
Orbit: 497 x 522 km, 82.5° (Epoch: 16 January)

Event Time Altitude Azimuth Distance (km) Brightness Sun altitude
Rises 13:39:11 0° 233° (SW) 2,653 7.6 -10.8°
Reaches altitude 10° 13:41:40 10° 249° (WSW) 1,769 6.5 -11.1°
Maximum altitude 13:44:46 22° 301° (WNW) 1,176 4.4 -11.4°
Drops below altitude 10° 13:47:53 10° 355° (N) 1,776 4.7 -11.8°
Enters shadow 13:50:09 - 9° (N) 2,570 5.4 -12.0°
